TimeCST,TemperatureF,Dew PointF,Humidity,Sea Level PressureIn,VisibilityMPH,Wind Direction,Wind SpeedMPH,Gust SpeedMPH,PrecipitationIn,Events,Conditions,WindDirDegrees,DateUTC
6:00 AM,73.4,66.2,78,29.84,-9999.0,ENE,4.6,-,N/A,,Clear,60,2013-04-03 12:00:00
7:00 AM,78.8,66.2,65,29.87,-9999.0,Calm,Calm,-,N/A,,Clear,0,2013-04-03 13:00:00
8:00 AM,80.6,66.2,61,29.89,-9999.0,North,5.8,-,N/A,,Clear,360,2013-04-03 14:00:00
9:00 AM,87,65,38,29.91,12,ESE,3.5,,,,Overcast,120,2013-04-03 15:00:00
9:00 AM,87.8,64.4,46,29.89,-9999.0,ESE,3.5,-,N/A,,Clear,120,2013-04-03 15:00:00
10:00 AM,91.4,64.4,41,29.88,-9999.0,ENE,12.7,-,N/A,,Clear,60,2013-04-03 16:00:00
11:00 AM,93.2,62.6,36,29.87,6.2,East,11.5,-,N/A,,Mostly Cloudy,80,2013-04-03 17:00:00
12:00 PM,92,62,27,29.87,12,East,9.2,,,,Overcast,100,2013-04-03 18:00:00
12:00 PM,93.2,62.6,36,29.85,6.2,East,9.2,-,N/A,,Mostly Cloudy,100,2013-04-03 18:00:00
1:00 PM,93.2,62.6,36,29.81,6.2,East,11.5,-,N/A,,Mostly Cloudy,80,2013-04-03 19:00:00
2:00 PM,93.2,62.6,36,29.77,6.2,ENE,9.2,-,N/A,,Mostly Cloudy,60,2013-04-03 20:00:00
3:00 PM,93,63,27,29.76,12,NW,3.5,,,,Overcast,320,2013-04-03 21:00:00
3:00 PM,93.2,62.6,36,29.75,6.2,NW,3.5,-,N/A,,Mostly Cloudy,320,2013-04-03 21:00:00
4:00 PM,87.8,66.2,49,29.75,6.2,West,10.4,-,N/A,,Mostly Cloudy,280,2013-04-03 22:00:00
5:00 PM,84.2,68.0,58,29.77,6.2,WNW,9.2,-,N/A,,Mostly Cloudy,290,2013-04-03 23:00:00
6:00 PM,83,70,57,29.80,12,WNW,6.9,,,,Overcast,290,2013-04-04 00:00:00
6:00 PM,82.4,69.8,66,29.79,6.2,WNW,6.9,-,N/A,,Mostly Cloudy,290,2013-04-04 00:00:00
7:00 PM,82.4,71.6,70,29.81,6.2,WNW,3.5,-,N/A,,Mostly Cloudy,300,2013-04-04 01:00:00
8:00 PM,80.6,71.6,74,29.84,-9999.0,West,5.8,-,N/A,,Clear,280,2013-04-04 02:00:00
9:00 PM,80.6,68.0,65,29.86,-9999.0,Calm,Calm,-,N/A,,Clear,0,2013-04-04 03:00:00
10:00 PM,80.6,68.0,65,29.88,-9999.0,North,5.8,-,N/A,,Clear,10,2013-04-04 04:00:00